TimeEST,TemperatureF,Dew PointF,Humidity,Sea Level PressureIn,VisibilityMPH,Wind Direction,Wind SpeedMPH,Gust SpeedMPH,PrecipitationIn,Events,Conditions,WindDirDegrees,DateUTC
12:53 AM,54.0,41.0,62,29.86,10.0,SSW,16.1,-,N/A,,Clear,210,2012-11-23 05:53:00
1:53 AM,54.0,41.0,62,29.84,10.0,SW,21.9,28.8,N/A,,Mostly Cloudy,220,2012-11-23 06:53:00
2:53 AM,51.1,46.0,83,29.83,6.0,SW,16.1,-,0.02,Rain,Light Rain,220,2012-11-23 07:53:00
3:53 AM,51.1,48.0,89,29.82,8.0,SW,19.6,27.6,0.04,Rain,Light Rain,220,2012-11-23 08:53:00
4:05 AM,51.8,48.2,88,29.83,9.0,SW,20.7,28.8,0.00,,Overcast,220,2012-11-23 09:05:00
4:53 AM,52.0,48.9,89,29.81,7.0,SW,13.8,-,0.00,,Overcast,230,2012-11-23 09:53:00
5:44 AM,51.8,48.2,88,29.81,8.0,WSW,19.6,31.1,N/A,,Overcast,240,2012-11-23 10:44:00
5:53 AM,52.0,48.9,89,29.80,8.0,WSW,17.3,31.1,N/A,,Mostly Cloudy,240,2012-11-23 10:53:00
6:27 AM,48.2,42.8,82,29.82,10.0,West,20.7,28.8,N/A,,Scattered Clouds,270,2012-11-23 11:27:00
6:53 AM,45.0,41.0,86,29.83,10.0,West,25.3,38.0,N/A,,Scattered Clouds,260,2012-11-23 11:53:00
7:05 AM,44.6,39.2,81,29.85,10.0,WSW,23.0,28.8,N/A,,Mostly Cloudy,250,2012-11-23 12:05:00
7:33 AM,41.0,37.4,87,29.86,10.0,West,24.2,33.4,N/A,,Scattered Clouds,260,2012-11-23 12:33:00
7:53 AM,39.9,36.0,86,29.87,10.0,West,21.9,29.9,N/A,,Partly Cloudy,260,2012-11-23 12:53:00
8:09 AM,39.2,35.6,87,29.88,10.0,WSW,23.0,29.9,N/A,,Mostly Cloudy,250,2012-11-23 13:09:00
8:24 AM,39.2,33.8,81,29.88,10.0,West,26.5,33.4,N/A,,Scattered Clouds,260,2012-11-23 13:24:00
8:53 AM,39.0,34.0,82,29.88,10.0,WSW,23.0,31.1,N/A,,Partly Cloudy,250,2012-11-23 13:53:00
9:19 AM,39.2,33.8,81,29.89,10.0,West,26.5,33.4,N/A,,Mostly Cloudy,260,2012-11-23 14:19:00
9:53 AM,37.9,32.0,79,29.89,10.0,West,20.7,32.2,N/A,,Overcast,270,2012-11-23 14:53:00
10:53 AM,39.0,32.0,76,29.90,10.0,WSW,20.7,29.9,N/A,,Overcast,250,2012-11-23 15:53:00
11:53 AM,37.9,30.0,73,29.89,10.0,West,27.6,35.7,N/A,,Overcast,260,2012-11-23 16:53:00
12:53 PM,37.0,28.9,73,29.88,10.0,West,25.3,36.8,N/A,,Overcast,260,2012-11-23 17:53:00
1:53 PM,35.1,27.0,72,29.90,10.0,West,27.6,41.4,N/A,,Overcast,260,2012-11-23 18:53:00
2:53 PM,33.1,27.0,78,29.93,6.0,West,27.6,38.0,0.00,Rain,Light Rain,260,2012-11-23 19:53:00
3:53 PM,32.0,24.1,73,29.98,10.0,West,23.0,32.2,0.00,,Overcast,270,2012-11-23 20:53:00
4:53 PM,32.0,23.0,69,30.01,10.0,West,20.7,29.9,N/A,,Overcast,270,2012-11-23 21:53:00
5:23 PM,30.2,21.2,69,30.02,10.0,West,21.9,32.2,N/A,,Overcast,260,2012-11-23 22:23:00
5:53 PM,30.9,21.9,69,30.05,10.0,West,20.7,26.5,N/A,,Overcast,260,2012-11-23 22:53:00
6:53 PM,30.9,21.9,69,30.06,10.0,West,21.9,28.8,N/A,,Overcast,270,2012-11-23 23:53:00
7:53 PM,30.9,21.9,69,30.08,10.0,West,21.9,25.3,N/A,,Overcast,260,2012-11-24 00:53:00
8:53 PM,30.0,21.9,72,30.08,10.0,WSW,18.4,25.3,N/A,,Overcast,250,2012-11-24 01:53:00
9:53 PM,30.0,21.9,72,30.09,10.0,WSW,16.1,-,N/A,,Overcast,250,2012-11-24 02:53:00
10:53 PM,30.0,21.9,72,30.09,10.0,WSW,20.7,26.5,N/A,,Overcast,250,2012-11-24 03:53:00
11:53 PM,30.0,21.9,72,30.08,10.0,West,20.7,27.6,N/A,,Overcast,260,2012-11-24 04:53:00